This is the latest recevied weather packets stored in our database for station/object K7LDN-13. If no packets are shown the sender has not sent any weather packets the latest 10 day(s).
| Time | Temp. | Humidity | Pressure | Rain* | Wind** | Luminosity | Snow |
|---|---|---|---|---|---|---|---|
| 1777813145 | 9.44° C | 44% | 1018.7 hPa | 0 mm | - | 38 W/m² | - |
| 1777812843 | 9.44° C | 43% | 1018.7 hPa | 0 mm | - | 28 W/m² | - |
| 1777812539 | 9.44° C | 43% | 1018.7 hPa | 0 mm | - | 21 W/m² | - |
| 1777812237 | 9.44° C | 42% | 1018.7 hPa | 0 mm | - | 15 W/m² | - |
| 1777811935 | 8.89° C | 43% | 1018.7 hPa | 0 mm | - | 11 W/m² | - |
| 1777811634 | 8.89° C | 44% | 1018.6 hPa | 0 mm | - | 7 W/m² | - |
| 1777811333 | 8.89° C | 49% | 1018.5 hPa | 0 mm | - | 4 W/m² | - |
| 1777811031 | 8.33° C | 45% | 1018.7 hPa | 0 mm | - | 2 W/m² | - |
| 1777810728 | 8.33° C | 48% | 1018.6 hPa | 0 mm | - | 1 W/m² | - |
| 1777810424 | 8.33° C | 48% | 1018.5 hPa | 0 mm | - | 1 W/m² | - |
| 1777810120 | 8.89° C | 45% | 1018.7 hPa | 0 mm | - | 0 W/m² | - |
| 1777809818 | 9.44° C | 45% | 1018.5 hPa | 0 mm | - | 0 W/m² | - |
| 1777809516 | 10° C | 44% | 1018.5 hPa | 0 mm | - | 0 W/m² | - |
| 1777809213 | 10° C | 43% | 1018.8 hPa | 0 mm | - | 0 W/m² | - |
| 1777808911 | 10° C | 41% | 1018.8 hPa | 0 mm | - | 0 W/m² | - |
| 1777808607 | 10° C | 40% | 1019 hPa | 0 mm | - | 0 W/m² | - |
| 1777808304 | 10° C | 40% | 1019 hPa | 0 mm | - | 0 W/m² | - |
| 1777808004 | 10° C | 39% | 1019.1 hPa | 0 mm | - | 0 W/m² | - |
| 1777807700 | 10.56° C | 40% | 1019 hPa | 0 mm | - | 0 W/m² | - |
| 1777807399 | 10.56° C | 43% | 1019.3 hPa | 0 mm | - | 0 W/m² | - |
| 1777807098 | 11.11° C | 46% | 1019.3 hPa | 0 mm | - | 0 W/m² | - |
| 1777806797 | 11.11° C | 46% | 1019.3 hPa | 0 mm | - | 0 W/m² | - |
| 1777806492 | 12.22° C | 47% | 1019.3 hPa | 0 mm | - | 0 W/m² | - |
| 1777806189 | 12.22° C | 45% | 1019.1 hPa | 0 mm | - | 0 W/m² | - |
| 1777805885 | 12.78° C | 44% | 1019.1 hPa | 0 mm | - | 0 W/m² | - |
* Rain latest hour (hover to see other rain measurements)
** Current wind speed in m/s (hover to see current wind gust speed)